Theta_e
322 322 322 322 323 323 322 322 322 322 322 322 323 323 323 323 324 324 324 324 324 324 324 325 325 323 324 324 323 321 319 311 306 304 303 304 310 319 319 320 321 323 324 318 310 306 303 305 304 308 308 309 309 310 314 311 308 310 303 301 298 300 300 297 296 296 297 296 293 294 296 297 291 293 294 296 295 295 294 292 292 294 293 297 299 299 297 296
322 322 321 322 322 322 323 323 323 323 323 323 324 324 324 323 323 323 324 324 324 323 324 326 323 322 324 324 321 317 312 305 303 303 301 314 318 318 319 319 321 323 322 311 306 305 303 303 304 306 306 304 308 308 312 306 307 304 303 302 298 298 293 294 294 296 297 297 295 296 297 296 296 295 294 295 293 293 293 293 294 293 292 294 297 297 296 295
322 322 321 322 322 322 322 322 322 323 323 323 323 323 323 323 323 323 323 324 324 324 325 325 324 324 321 324 324 318 307 305 303 299 305 318 317 318 320 320 321 323 317 307 305 304 304 304 306 306 305 304 305 303 306 301 303 304 301 299 299 295 293 293 293 293 295 297 295 295 295 297 296 296 297 295 294 295 294 293 293 294 292 293 293 296 295 293
320 321 321 321 321 321 322 322 322 322 322 323 323 323 323 323 323 323 324 324 324 325 325 323 323 324 324 323 322 318 308 304 299 301 306 318 317 318 318 319 323 322 316 308 306 305 306 305 306 306 304 302 303 304 302 301 301 301 300 298 295 294 295 292 293 293 294 297 296 295 294 293 294 295 295 295 294 294 297 298 296 295 294 294 294 293 294 292
320 321 321 321 321 321 321 321 322 322 322 322 323 323 322 323 323 323 323 324 325 324 324 322 325 324 324 323 320 313 305 297 298 304 307 317 318 317 316 320 318 316 309 308 306 306 304 304 304 305 304 301 302 303 301 300 300 300 295 293 293 294 294 291 292 291 293 295 296 294 292 293 294 293 294 295 294 295 297 298 295 299 297 295 294 294 294 292
320 321 320 320 320 321 321 321 321 322 322 323 322 322 322 322 322 323 323 323 323 324 323 324 323 321 321 321 313 308 302 290 301 303 315 315 315 314 313 316 317 312 309 305 304 304 302 302 302 301 301 301 300 298 297 299 299 297 293 292 292 292 292 291 291 290 292 294 293 292 294 293 292 293 294 294 295 289 289 293 296 298 298 297 297 294 292 292
320 320 320 320 320 320 320 321 321 322 322 323 322 322 323 322 322 322 323 323 323 323 323 323 322 321 320 318 315 305 300 299 303 305 314 314 315 314 311 313 313 310 307 303 302 301 301 300 301 300 301 301 300 299 296 297 299 298 293 292 290 291 290 290 290 290 291 294 293 293 293 292 292 290 292 291 289 288 288 290 292 294 297 297 295 294 294 293
320 320 319 319 319 320 320 321 321 321 322 322 322 322 322 322 322 322 323 323 323 323 323 323 323 322 318 312 306 302 300 298 303 307 312 314 308 305 309 305 307 307 304 303 302 301 301 299 299 301 300 299 299 299 296 296 297 297 293 291 289 290 290 290 290 290 290 290 291 292 291 291 291 290 289 291 289 288 289 289 290 290 291 293 294 294 293 292
320 320 319 319 319 320 320 320 321 321 321 321 322 322 322 322 321 322 323 322 323 323 321 321 322 320 318 315 304 300 297 302 306 307 307 305 305 304 305 305 305 303 303 303 303 303 301 299 300 301 297 299 298 297 297 296 295 294 291 291 290 290 290 290 290 290 290 291 292 290 290 288 289 289 289 293 289 289 289 289 290 290 290 291 292 294 293 292
319 319 319 319 319 320 320 321 321 321 321 321 322 322 322 321 321 322 323 323 323 323 323 322 321 318 312 304 304 297 299 305 307 307 306 305 305 306 305 304 305 305 304 303 303 302 300 301 300 302 300 297 298 294 294 295 293 293 292 291 290 290 290 290 290 290 291 290 290 290 289 289 289 289 290 292 289 288 288 288 290 290 290 291 291 292 292 292
319 318 318 319 320 320 321 321 320 320 321 322 322 322 322 321 322 322 323 323 323 324 324 322 322 315 308 305 300 296 304 306 307 307 306 305 304 303 302 303 304 304 304 303 303 302 302 302 302 302 300 297 297 293 294 293 294 293 291 291 290 290 290 290 291 289 292 290 290 290 289 290 289 289 290 289 289 288 288 288 289 289 291 291 291 291 291 291
319 318 318 320 320 320 321 320 321 320 321 321 322 322 321 321 321 323 322 322 323 324 322 323 319 313 307 303 299 298 305 305 308 307 307 305 303 303 303 304 305 304 304 303 302 302 302 303 303 302 296 300 294 293 291 294 293 292 294 290 289 290 289 290 290 290 291 289 290 291 289 287 288 286 292 289 288 288 288 288 288 290 292 292 292 290 290 290
318 318 318 319 319 320 321 321 320 321 321 321 322 321 321 321 322 323 323 322 322 322 320 318 318 311 308 301 299 304 306 308 307 306 306 307 305 306 306 305 305 305 305 304 301 302 304 305 303 299 300 299 295 294 294 295 293 294 293 293 289 289 289 291 291 291 290 290 291 290 284 290 290 291 290 288 288 288 287 288 289 290 291 292 291 290 290 291
318 318 318 320 319 320 320 320 320 321 321 321 321 321 321 322 322 322 323 322 321 321 319 315 310 310 306 298 302 304 306 309 307 305 304 306 305 304 305 305 305 305 305 303 303 304 303 305 303 300 302 297 293 296 293 292 293 291 293 293 290 289 288 290 290 290 289 290 290 291 284 289 292 290 288 288 289 287 287 288 289 289 290 291 291 291 290 291
318 318 319 319 319 320 320 321 320 321 321 321 321 321 321 321 322 322 321 316 315 317 320 317 315 307 302 299 304 306 312 307 304 303 305 304 302 303 303 304 303 304 304 304 302 303 304 304 302 298 294 297 296 295 292 291 293 293 289 287 291 288 290 289 291 290 288 289 291 290 284 287 292 288 287 288 288 288 288 289 289 289 289 290 290 291 291 292
317 318 319 319 318 319 319 320 320 319 320 320 320 321 321 321 321 320 317 319 318 318 322 319 309 306 302 296 300 310 305 301 300 304 305 304 303 301 302 302 303 303 303 302 305 304 304 303 297 296 294 295 295 294 293 290 290 291 289 287 288 289 289 288 288 291 290 289 289 289 286 290 289 288 287 288 287 288 288 289 290 289 289 289 290 290 291 292
317 318 319 318 318 318 319 318 318 319 319 319 318 319 319 318 318 317 315 314 312 314 313 305 307 305 297 300 306 300 298 302 304 304 303 305 303 302 302 302 301 301 302 303 303 303 301 298 297 298 299 294 296 295 289 287 287 288 291 287 290 287 289 287 288 290 290 289 287 290 286 288 291 288 288 287 288 287 287 289 290 290 289 289 290 290 290 291
317 318 318 318 318 319 317 317 318 318 318 317 316 316 311 316 315 319 315 314 314 315 313 310 307 303 296 302 295 297 302 301 301 301 303 305 302 302 301 300 301 301 300 299 301 298 299 296 298 294 294 294 293 292 287 284 287 288 288 287 288 289 289 288 288 288 288 289 287 289 288 288 290 292 288 287 288 287 287 288 290 290 289 289 289 289 289 290
317 318 317 318 318 319 316 317 317 317 317 316 315 316 317 318 314 311 307 308 309 303 300 300 301 294 293 295 300 300 301 302 301 302 301 302 302 302 301 302 300 299 297 296 296 297 298 297 298 293 290 291 291 292 290 289 290 290 289 289 289 286 288 288 289 289 289 288 287 287 286 288 291 292 292 288 288 287 288 289 289 290 290 290 289 290 290 289
317 317 317 318 318 316 315 315 316 316 314 316 319 319 312 306 308 302 306 303 299 298 299 300 300 299 298 298 297 301 304 302 299 301 302 303 301 300 300 300 299 299 297 294 296 295 298 293 289 289 291 290 289 289 289 289 289 290 291 290 288 288 289 289 289 289 290 287 287 288 289 289 290 291 293 291 288 287 288 288 288 289 289 290 289 289 290 290
316 316 317 317 318 317 316 316 317 316 315 317 315 309 303 302 300 294 297 299 301 301 299 299 298 297 296 297 299 298 296 298 300 300 300 304 302 298 297 298 296 294 293 293 296 297 295 291 289 288 288 288 288 289 289 291 291 290 289 288 287 289 287 289 289 288 289 287 287 290 289 288 290 291 292 294 288 287 287 288 288 289 290 290 290 290 290 291
316 316 316 317 317 317 317 317 317 314 311 318 312 306 306 310 308 313 305 294 298 301 299 298 299 297 299 299 299 298 297 296 297 298 301 302 298 295 297 296 294 293 292 294 293 292 292 289 288 288 288 289 289 289 289 290 291 289 287 288 286 287 290 289 288 287 289 287 286 288 286 287 289 290 292 292 292 290 291 290 290 290 290 290 290 290 291 291
316 315 317 315 317 317 317 316 316 311 317 314 310 307 310 313 310 314 311 300 297 300 300 299 297 296 297 300 300 300 295 292 291 296 296 300 297 295 296 294 293 292 292 292 290 290 288 288 287 288 288 288 289 288 289 290 290 288 288 286 285 287 284 282 287 287 288 286 285 287 284 285 288 290 291 293 293 293 293 292 292 292 291 291 291 291 291 291
315 315 315 316 317 318 316 316 316 319 317 315 311 312 310 312 310 309 308 299 295 297 300 298 298 297 295 294 298 297 295 293 294 292 299 298 295 296 295 293 291 291 290 291 290 290 287 286 288 288 288 288 288 287 288 288 287 289 288 286 284 285 285 284 284 287 289 289 288 286 284 285 288 288 289 292 293 293 294 293 292 293 293 294 294 293 292 291
315 314 315 316 318 317 316 315 310 313 315 313 309 311 312 313 311 310 307 297 298 296 300 300 299 297 297 301 301 296 295 295 294 295 297 296 294 297 293 294 294 288 289 290 291 289 286 286 286 287 287 287 287 288 287 286 284 286 286 286 285 284 284 285 286 285 283 283 285 286 278 280 286 287 287 291 291 291 293 291 291 291 291 292 291 292 292 292
314 315 315 316 317 315 315 306 310 312 315 308 311 311 312 312 314 314 304 294 288 294 300 293 299 294 300 295 297 298 296 292 294 295 298 295 297 294 293 292 293 288 289 290 289 288 286 286 286 287 288 287 287 286 286 285 284 283 283 285 285 284 284 284 284 284 280 278 285 286 277 276 284 285 287 289 289 289 291 290 290 291 291 290 290 291 291 291
313 315 316 316 316 316 306 304 317 315 306 311 312 313 312 312 312 317 298 290 286 294 295 297 298 296 301 295 296 296 289 291 296 296 295 297 295 299 295 291 293 291 292 291 288 285 287 285 285 286 286 287 286 285 285 284 282 282 282 286 285 283 283 284 284 283 281 286 287 286 284 278 278 284 288 289 288 288 289 290 291 291 291 291 291 291 291 292
314 314 315 314 314 315 313 312 309 308 309 311 311 311 312 312 315 314 297 281 280 298 293 296 296 302 299 297 298 293 290 293 292 293 296 296 295 297 295 293 293 291 289 288 283 286 287 284 285 285 286 285 284 283 284 285 282 284 284 286 284 285 285 285 284 282 283 282 279 283 285 279 279 284 287 288 284 286 287 289 291 293 293 293 293 293 293 293
314 313 314 314 312 312 316 313 310 311 307 310 307 312 314 315 312 299 289 281 293 293 302 295 301 298 297 297 295 294 294 294 290 293 297 296 297 295 292 291 291 289 289 289 287 284 288 287 286 286 285 283 285 285 285 284 283 286 287 285 286 286 285 286 282 282 282 280 276 281 284 277 277 283 285 284 285 284 286 288 289 291 293 294 294 294 295 295
313 315 312 312 313 312 312 316 312 308 307 307 310 310 313 312 303 290 284 279 295 287 295 297 296 292 297 294 292 293 291 292 293 295 296 293 293 295 291 294 292 291 288 291 289 288 287 290 289 288 285 285 285 285 285 284 283 287 286 285 285 284 284 284 283 283 280 275 279 283 282 280 274 281 284 284 285 286 286 287 289 290 292 293 295 295 296 295
312 313 314 313 316 314 315 308 310 309 307 311 309 312 310 303 291 286 279 286 293 293 296 294 292 297 292 291 290 293 294 292 292 293 292 295 294 294 291 290 292 288 286 286 284 286 287 288 288 288 287 287 286 284 285 284 285 285 285 283 282 282 282 281 281 282 275 275 278 280 280 282 273 279 285 288 288 287 287 287 288 289 290 291 293 294 294 294
310 311 312 314 308 315 313 308 308 309 310 310 313 308 300 288 290 283 283 295 288 291 290 291 293 290 291 291 290 289 288 292 292 290 288 288 289 290 288 287 286 283 283 284 283 285 284 285 288 286 288 285 285 284 284 285 285 284 283 283 278 277 278 275 279 274 276 276 278 279 279 277 277 281 285 287 288 289 290 291 290 290 290 291 292 293 294 294
310 308 309 311 312 313 309 307 308 310 308 307 312 304 294 287 280 288 286 288 286 292 291 293 291 290 289 289 289 289 290 288 291 291 288 288 289 288 287 288 287 285 281 284 282 283 283 285 285 286 285 286 286 281 282 281 283 283 281 281 277 274 273 271 274 277 276 279 278 278 279 274 280 282 286 286 289 290 290 290 291 291 291 291 292 293 292 292
310 310 307 305 307 308 309 308 308 308 309 308 305 297 290 283 283 286 285 287 289 291 290 290 291 291 289 288 289 288 288 289 289 289 289 287 287 285 287 287 288 288 287 284 281 281 279 280 282 284 282 287 284 283 282 281 283 283 285 280 279 277 273 269 273 271 273 275 279 278 276 274 276 282 288 288 290 290 290 290 291 291 290 291 291 291 291 289
307 312 311 311 312 308 309 308 309 306 312 306 299 293 284 284 287 286 286 288 289 291 290 288 290 288 289 288 288 289 287 286 289 288 290 287 285 285 285 286 287 287 286 282 283 282 281 281 283 285 285 284 283 285 284 284 282 283 283 283 278 277 282 274 277 275 274 274 274 276 275 281 281 288 290 290 290 289 288 288 289 289 290 290 289 289 289 290
312 309 316 307 307 307 308 310 307 308 310 302 294 288 286 287 286 288 289 293 291 289 290 289 289 287 287 287 287 287 288 286 289 287 287 286 286 285 285 286 285 286 285 282 284 281 282 280 283 285 286 283 284 284 285 284 278 281 281 278 280 283 281 277 277 276 276 274 271 280 279 282 287 287 289 289 287 288 288 288 289 289 290 289 288 288 288 290
308 312 305 308 306 307 307 308 308 309 307 300 292 287 289 288 289 289 291 292 290 291 289 286 287 286 285 285 286 285 286 286 286 285 285 287 286 286 285 285 287 286 286 284 284 284 279 281 283 284 281 283 286 285 285 285 284 281 278 281 283 284 283 279 273 275 274 271 274 279 276 277 279 276 286 285 284 286 286 287 288 288 289 287 287 288 290 290
310 306 306 306 305 307 308 308 308 311 304 297 289 291 289 290 289 292 291 289 290 289 288 286 287 287 285 284 285 284 287 285 288 285 285 288 284 288 286 285 285 286 285 287 284 283 283 279 282 282 284 284 286 285 284 285 285 281 280 284 279 276 275 279 276 269 270 270 273 276 278 278 279 279 284 284 284 285 286 287 287 287 286 287 288 289 291 292
308 306 302 305 308 307 310 308 313 305 300 290 291 289 291 291 290 291 292 292 292 291 286 289 287 287 286 285 285 285 285 284 286 285 284 286 284 287 286 287 285 285 284 286 283 284 284 278 280 281 283 283 283 284 279 281 283 282 284 282 283 279 277 276 277 276 275 270 271 272 277 275 282 283 285 284 286 285 286 285 284 285 286 287 287 289 289 290
306 301 299 307 309 309 307 311 306 301 296 289 291 290 291 290 291 290 290 290 291 289 288 287 288 285 285 286 286 285 287 285 285 286 285 286 284 287 286 284 285 284 286 284 282 286 282 282 277 282 283 282 280 282 281 284 278 279 279 279 279 280 281 280 278 276 274 272 272 271 270 276 283 287 285 285 286 286 285 285 285 286 287 288 289 289 289 290
305 302 300 308 308 310 312 309 299 295 293 292 290 291 290 291 291 290 291 291 291 291 288 289 288 286 288 286 286 287 285 286 285 285 286 286 285 284 287 286 286 283 285 284 282 283 281 281 277 281 280 279 282 285 284 283 284 283 281 280 280 278 275 272 272 279 276 274 271 271 270 278 284 287 287 287 287 286 286 285 285 287 288 288 289 290 290 290
301 294 300 306 308 313 306 296 291 292 292 290 290 291 290 292 292 290 290 290 289 289 290 288 289 288 287 286 288 287 286 285 286 285 287 285 287 285 286 289 288 288 284 283 283 285 283 282 280 278 281 283 283 281 282 282 282 283 282 282 284 282 280 277 271 275 273 275 275 275 271 274 284 287 287 286 286 286 286 286 285 286 287 288 289 289 290 290
299 298 302 306 308 308 302 295 291 291 291 292 290 291 291 291 291 291 291 290 289 291 289 288 289 287 289 289 288 286 287 285 287 284 287 287 287 286 287 289 289 287 285 284 282 283 284 280 278 280 284 284 279 281 281 280 282 280 282 283 282 279 281 279 278 278 275 276 273 274 269 274 284 287 287 286 286 285 285 285 285 286 286 287 287 288 288 289
300 300 301 308 311 310 299 290 290 290 290 290 291 290 291 291 290 288 290 291 291 289 288 289 288 290 287 288 287 285 288 283 288 287 286 287 285 287 288 288 288 284 284 284 282 285 279 282 280 278 279 282 279 278 278 279 280 279 280 282 282 282 280 278 277 279 273 275 276 274 270 276 283 286 287 286 284 284 285 286 286 286 287 288 288 288 289 289
298 299 299 301 305 304 294 299 295 291 289 289 289 289 288 289 292 292 291 290 291 290 289 288 288 289 287 288 288 288 288 286 284 287 284 283 285 285 288 288 288 285 287 285 285 286 281 282 280 276 275 273 274 277 280 280 279 281 282 282 281 281 278 276 274 275 271 275 276 274 274 280 284 285 284 284 284 285 286 288 289 289 288 288 288 289 288 288
296 290 296 298 301 299 295 294 298 295 289 288 287 290 290 289 290 291 291 290 291 290 288 289 288 288 287 286 286 285 286 288 284 284 283 284 285 285 285 286 286 285 284 284 282 285 282 282 281 280 279 279 282 284 282 281 282 278 281 280 280 280 281 279 279 276 273 277 275 277 277 279 281 283 285 286 286 286 286 287 287 287 288 288 289 288 289 288
298 293 292 291 295 297 294 296 294 294 291 292 288 291 286 289 290 288 292 289 290 289 289 288 288 285 286 286 286 286 288 286 287 283 281 282 285 284 283 286 286 284 281 282 282 283 281 278 280 280 280 281 283 283 285 282 279 280 280 281 280 278 278 277 275 274 280 276 273 279 280 278 279 282 284 285 286 286 287 287 287 287 287 287 287 288 288 288
294 296 296 296 295 293 291 291 295 294 292 293 289 290 288 289 287 286 287 289 288 288 287 288 288 288 289 287 288 284 286 285 286 282 284 284 284 284 283 284 283 284 283 283 284 282 280 278 282 281 279 281 282 282 282 281 281 280 280 280 279 279 278 275 275 278 279 276 274 279 281 280 281 283 285 285 286 286 286 286 287 287 287 287 287 287 287 287
299 295 295 293 295 290 292 293 293 295 292 292 290 289 289 289 287 290 290 287 287 288 288 285 288 288 288 289 288 285 286 282 284 285 282 283 282 283 282 282 284 286 283 282 281 282 280 278 280 277 277 278 279 280 281 280 280 279 279 280 280 280 279 278 278 279 278 277 279 279 279 279 282 283 284 285 287 287 286 287 287 286 286 287 287 286 287 287
298 297 293 295 295 290 289 290 293 292 291 289 288 290 289 289 289 289 288 290 286 288 290 286 289 291 289 289 288 285 287 288 288 284 285 283 282 283 284 286 283 283 284 281 281 282 279 278 278 279 276 277 280 282 282 281 279 277 279 280 280 280 280 280 278 278 279 278 279 278 278 277 282 285 285 286 287 287 286 285 285 286 286 286 286 286 286 286
301 298 302 296 293 290 289 290 291 292 289 290 287 290 288 290 290 292 290 293 291 290 288 287 291 290 290 289 288 288 290 291 291 290 290 286 284 288 284 285 287 281 282 281 281 280 279 278 279 276 274 276 280 278 279 279 279 278 278 279 280 279 277 278 278 280 278 276 278 278 276 276 282 286 286 286 286 285 284 285 286 286 286 286 286 286 286 286
300 297 298 299 293 289 291 288 290 289 287 293 293 292 289 292 292 292 288 294 293 294 293 292 292 290 289 287 287 289 292 292 292 292 289 290 289 288 288 287 287 285 282 281 283 278 277 278 277 277 275 275 280 278 278 279 278 277 279 282 284 283 282 282 282 282 281 281 278 276 277 282 284 286 284 285 285 285 285 285 285 286 286 286 286 285 285 286
Wind_Speed
1 2 3 5 6 7 7 8 9 10 9 9 8 8 7 7 6 5 5 5 4 3 5 4 3 2 3 2 2 3 2 6 4 4 7 5 4 7 11 11 11 9 6 5 7 5 7 8 9 8 8 7 5 6 6 5 2 4 6 6 7 8 4 7 6 6 3 4 9 10 11 7 8 7 5 6 4 5 8 5 5 4 5 5 9 12 14 13
3 3 3 4 6 6 7 8 9 10 10 9 8 8 7 7 7 6 4 3 3 6 5 3 4 1 2 1 2 0 4 4 1 7 6 4 8 11 12 11 9 7 3 6 7 7 7 8 9 9 8 7 4 3 6 3 2 7 6 6 7 5 5 4 5 6 5 3 9 9 8 6 6 12 8 8 9 9 9 6 8 8 6 7 8 11 13 12
4 4 4 5 5 5 5 6 7 8 9 8 8 8 8 7 8 6 4 4 5 5 4 4 1 2 2 1 0 3 2 5 6 6 4 7 12 12 11 10 8 2 7 6 5 6 8 5 8 10 8 6 6 4 7 2 3 5 6 7 1 5 5 6 5 4 4 2 9 10 7 6 8 8 9 8 9 10 11 9 10 11 10 11 11 12 12 11
6 6 7 7 7 6 4 4 4 5 6 6 8 8 7 6 7 6 4 5 5 4 4 4 2 1 2 3 2 3 7 7 2 5 7 12 13 11 10 9 6 4 6 7 6 6 6 6 6 10 6 8 6 3 8 3 5 3 7 6 4 4 2 7 4 5 3 2 6 7 6 6 8 5 9 5 9 10 9 9 11 12 12 13 13 13 12 11
8 8 8 9 8 8 6 5 4 3 3 6 7 7 6 6 6 5 5 5 5 4 4 2 2 2 2 3 3 5 6 7 4 6 11 13 13 11 8 7 4 4 5 5 5 5 5 7 7 9 7 7 5 6 3 3 3 1 2 4 3 3 2 6 4 3 3 2 5 6 9 6 7 4 8 8 10 5 3 6 3 5 13 15 16 14 12 11
9 8 7 7 7 7 6 6 5 5 6 6 6 6 6 6 5 4 3 3 3 2 2 2 2 3 3 4 4 4 3 3 5 9 12 12 12 10 7 5 4 5 5 5 4 3 5 6 8 8 7 8 7 8 4 0 1 7 4 2 5 4 2 3 3 4 3 3 5 8 3 8 8 6 7 6 9 4 3 6 5 5 10 13 13 13 13 12
9 9 8 8 7 7 6 6 6 6 6 6 6 6 6 5 5 3 3 3 4 2 2 3 3 4 4 3 4 5 5 5 7 11 12 12 11 5 6 4 3 4 5 5 5 5 7 7 9 9 9 7 1 2 3 2 4 7 1 2 6 5 5 4 5 2 2 4 3 3 5 5 7 5 3 8 4 5 4 2 5 6 8 12 13 13 13 13
8 8 8 8 7 7 7 7 6 5 5 5 6 6 6 5 4 4 3 4 4 3 3 4 4 5 5 4 6 6 1 6 11 12 11 10 9 3 2 5 4 5 5 5 4 7 5 9 10 7 9 6 0 5 2 3 1 6 3 4 4 4 5 5 4 3 4 4 2 2 5 3 2 3 2 9 5 5 6 4 4 7 7 9 12 13 12 11
7 7 7 6 5 6 6 6 5 5 4 5 6 6 5 5 4 4 4 4 3 3 4 4 3 4 5 4 7 6 4 7 9 11 12 11 9 5 4 3 1 5 3 3 4 6 5 7 9 7 6 6 2 3 3 3 4 5 6 5 5 5 5 4 4 3 3 3 2 4 3 1 1 4 8 8 7 8 7 6 7 8 9 11 11 12 12 12
8 7 7 6 5 6 5 5 4 3 3 3 5 5 5 5 5 4 4 4 3 4 5 4 4 4 5 7 5 6 5 6 8 9 10 10 10 4 4 6 5 4 5 1 3 4 8 4 6 3 6 7 3 3 3 2 2 5 8 6 6 6 5 2 3 3 2 2 1 4 4 4 2 3 5 8 10 9 9 8 8 10 11 11 9 10 10 10
8 8 7 7 7 6 5 4 3 2 1 3 5 6 7 6 5 5 4 4 4 4 4 5 3 4 6 8 7 2 3 4 7 7 9 9 8 11 10 9 6 5 2 1 2 3 5 5 1 2 4 2 7 6 3 4 8 8 10 9 6 4 4 4 3 3 4 3 2 4 3 1 5 4 9 7 11 11 11 10 10 10 11 10 11 10 9 9
8 8 8 7 7 6 6 6 5 3 3 4 7 7 7 7 6 6 5 4 4 5 3 4 7 5 5 5 7 5 5 4 6 7 7 8 7 7 7 8 6 5 5 2 3 4 3 2 3 3 1 7 3 7 6 5 6 9 6 2 5 5 4 5 3 4 3 1 2 3 6 10 9 11 9 11 11 11 10 10 10 11 10 11 11 10 9 9
8 8 7 7 7 7 7 6 6 5 5 6 7 8 7 7 6 5 5 4 3 3 3 3 5 5 6 1 5 4 2 2 4 6 8 5 3 4 6 7 8 8 7 4 5 4 3 4 2 7 3 1 5 2 7 4 5 4 4 3 5 5 6 7 4 3 4 2 2 2 6 7 15 13 9 10 10 10 9 10 10 10 11 10 11 10 10 10
8 8 7 7 6 6 7 7 5 4 5 6 8 8 7 6 4 4 3 1 3 2 2 3 5 4 1 5 4 3 2 2 3 8 11 9 4 4 6 8 7 7 7 9 7 3 2 4 11 12 7 5 4 8 9 5 4 4 2 3 5 4 3 9 6 7 6 5 4 3 7 8 5 10 9 9 10 12 11 10 11 11 11 10 11 11 11 12
9 8 8 7 6 6 7 6 5 3 4 6 7 7 7 6 5 4 3 4 1 1 5 6 4 3 2 4 2 3 2 5 6 9 8 9 8 2 5 4 7 8 7 7 5 4 4 7 8 5 4 5 11 8 5 5 5 3 3 4 6 6 4 6 6 7 6 5 5 3 8 11 4 8 9 8 9 11 10 11 11 12 11 12 11 12 13 13
9 8 7 6 6 5 5 5 3 2 3 5 6 6 6 6 6 4 0 2 2 5 5 3 2 4 4 4 4 4 1 8 9 8 4 6 7 5 4 3 1 4 5 5 3 3 5 7 7 6 9 6 6 5 4 4 5 5 6 4 3 4 2 5 7 4 2 3 6 10 7 8 3 6 8 8 10 11 10 11 12 13 13 12 12 11 12 13
8 8 7 6 5 4 4 2 4 3 4 5 7 6 7 7 6 6 5 4 3 3 4 0 2 1 2 3 3 1 7 7 5 6 5 4 5 6 5 4 1 3 3 5 3 3 2 3 3 4 2 3 3 4 4 5 5 6 5 5 4 5 4 5 6 5 3 5 6 10 9 13 10 8 9 11 11 11 11 12 13 12 12 13 12 12 13 14
8 8 7 5 4 3 3 3 4 4 5 6 5 8 8 9 10 6 3 2 2 1 2 2 3 2 5 3 2 6 7 5 7 7 3 5 2 6 5 3 3 3 3 2 3 2 1 3 4 1 4 3 4 5 5 3 5 6 2 5 5 6 8 9 4 6 4 5 8 9 12 16 17 10 11 13 13 13 14 13 13 13 13 13 14 14 16 15
8 8 7 5 4 2 2 5 6 6 6 6 5 3 1 5 3 11 10 3 3 4 4 5 5 2 3 7 3 5 6 5 7 5 8 8 4 5 4 3 4 6 5 7 3 3 0 2 4 4 5 4 0 4 3 5 7 6 7 7 8 8 6 2 6 4 2 5 8 11 13 14 16 16 11 12 14 14 15 13 12 13 14 14 15 15 15 16
8 8 6 5 3 1 2 6 7 5 0 3 3 3 3 3 4 3 7 12 9 5 4 4 3 2 2 7 8 11 8 2 4 9 9 8 5 3 6 4 4 5 5 4 1 3 3 4 2 1 5 5 5 4 4 4 4 6 5 7 8 8 7 5 4 4 2 3 11 14 14 17 18 17 15 11 12 14 14 15 14 14 14 15 15 16 17 17
8 8 6 4 3 0 4 4 1 3 4 4 4 4 3 1 2 3 4 7 5 6 5 5 5 6 5 4 7 10 4 4 3 10 11 11 5 5 2 3 5 5 3 1 3 2 2 5 2 4 4 4 4 3 2 3 2 4 6 7 7 5 6 3 0 4 2 3 6 7 11 16 17 17 16 12 14 17 17 16 17 17 17 15 17 17 17 17
8 7 6 4 3 2 4 2 1 1 4 4 4 5 2 3 1 3 2 5 4 5 3 4 2 2 2 2 2 4 5 4 3 13 12 15 3 7 3 4 3 2 3 1 3 5 4 1 4 3 2 2 1 2 1 3 4 2 5 5 4 3 5 3 4 3 2 3 9 11 14 15 16 18 17 16 16 15 16 17 18 17 17 16 15 17 17 15
7 8 5 4 3 3 4 2 3 3 3 3 3 3 1 2 3 2 2 9 5 1 2 5 4 6 6 2 5 7 3 8 5 11 14 14 3 7 7 3 3 2 2 1 5 4 5 4 5 3 1 1 2 0 1 3 4 5 4 3 3 5 5 3 4 1 5 4 7 9 14 17 19 19 19 18 17 16 15 16 17 16 17 18 18 16 15 18
7 6 5 2 2 4 4 4 3 3 1 3 2 3 2 2 4 4 4 2 3 1 2 2 2 5 5 6 6 8 7 4 4 10 12 10 7 5 3 6 1 1 3 5 5 3 4 4 3 2 1 3 1 1 3 4 5 4 3 5 5 5 4 3 6 5 6 9 6 10 13 14 11 9 9 11 15 15 13 13 14 15 16 15 13 14 16 17
7 5 3 4 4 5 5 1 3 1 1 1 3 2 3 3 3 5 2 3 3 3 3 3 3 4 4 3 3 4 3 3 7 5 8 8 8 4 4 0 3 3 3 5 2 5 5 4 2 2 1 1 2 4 2 4 6 3 4 4 4 5 7 8 7 8 7 6 6 5 10 6 2 2 6 1 5 10 10 11 14 14 14 13 14 16 15 16
6 5 3 3 7 7 4 2 4 4 4 1 3 3 1 3 3 3 3 3 2 3 5 0 3 2 2 4 5 4 3 1 3 4 3 6 3 3 1 2 4 2 1 3 3 3 3 2 1 1 2 3 3 3 3 2 4 5 3 3 3 3 7 7 9 7 5 7 3 2 6 12 7 11 10 6 8 10 9 12 13 12 12 13 14 13 14 15
5 4 2 5 7 8 7 6 4 4 4 3 2 2 1 2 2 2 3 2 3 2 2 3 3 4 2 3 3 2 3 3 1 3 3 5 2 2 3 4 3 3 2 1 3 3 2 2 2 3 4 4 4 4 2 3 3 1 1 3 3 5 6 7 6 6 8 7 9 7 7 9 13 8 5 5 8 9 8 10 12 11 12 13 14 14 15 15
4 2 2 4 6 6 3 3 6 7 2 2 2 1 0 1 2 3 3 2 1 1 2 2 3 1 2 2 5 3 3 5 3 3 2 2 4 3 2 2 3 4 3 2 3 3 3 3 3 4 5 5 2 4 2 3 3 3 1 2 5 4 6 6 6 7 6 7 8 4 5 7 7 5 5 3 5 7 7 7 8 11 12 12 13 13 14 15
3 4 4 5 6 2 1 1 3 4 2 1 2 1 0 0 3 4 2 4 2 1 1 2 1 2 3 4 2 3 0 5 3 4 3 3 2 4 1 2 2 4 1 3 3 4 2 2 2 3 4 2 4 3 4 2 4 3 1 2 3 4 5 7 6 6 5 5 9 6 6 5 14 9 5 4 6 7 3 8 8 4 7 10 10 12 13 12
4 2 3 4 6 3 2 1 4 2 1 1 2 1 1 3 3 3 2 4 2 1 1 3 3 5 6 3 1 5 3 3 1 5 3 2 2 4 5 3 2 3 3 3 2 3 3 1 1 2 2 3 2 4 1 3 2 3 2 4 5 5 6 6 6 3 4 6 6 6 2 4 8 10 4 4 0 2 6 8 8 8 5 5 7 8 7 9
6 5 2 5 1 1 1 3 3 1 1 2 2 3 3 4 3 2 3 1 2 2 2 2 2 2 5 3 1 4 2 3 4 7 2 3 4 4 4 2 3 3 3 4 3 4 4 3 3 2 1 1 1 3 0 1 2 2 4 5 7 8 6 5 5 3 3 5 6 1 4 2 5 12 3 3 2 2 4 10 12 11 9 7 5 5 5 6
9 11 10 5 1 2 2 1 3 2 1 2 3 4 4 3 2 4 1 1 3 2 2 2 2 2 2 1 1 5 3 1 3 5 4 3 3 1 3 2 2 2 4 1 1 4 6 7 4 5 2 3 4 5 4 4 3 4 6 6 4 5 4 4 4 4 4 7 5 5 0 6 13 16 15 21 20 16 10 6 9 11 11 9 7 6 5 4
6 11 13 8 1 4 3 2 0 0 1 3 3 4 5 2 3 1 1 1 0 2 2 1 2 3 3 4 1 3 1 2 3 0 1 1 3 3 2 2 3 3 3 3 3 4 2 5 5 5 2 6 5 5 4 4 6 5 5 2 4 5 4 7 7 6 7 1 6 3 4 9 16 16 18 18 17 10 8 8 8 9 9 9 8 5 4 4
3 3 8 3 7 4 2 1 1 2 3 3 4 4 2 2 1 2 0 1 2 1 1 1 1 3 3 3 3 4 2 3 3 2 2 1 3 2 3 2 2 2 3 4 3 4 4 2 7 8 2 6 7 6 4 5 1 3 3 4 4 3 3 6 5 8 8 10 8 6 3 5 5 0 5 7 7 4 6 6 4 5 7 7 6 7 7 7
1 6 6 3 3 4 3 1 1 3 3 4 4 4 2 2 0 1 2 3 2 2 2 2 2 3 2 2 1 1 2 0 1 4 3 4 1 2 1 2 2 3 2 3 2 2 3 4 4 4 4 6 6 1 2 3 7 2 2 1 3 4 3 7 4 6 6 9 10 4 5 5 9 13 14 8 7 7 7 8 6 9 8 6 6 7 6 5
5 2 1 4 3 3 2 0 1 2 3 4 4 3 4 1 0 1 1 3 5 3 3 2 4 4 3 3 3 2 2 3 1 2 3 3 1 2 3 1 1 1 2 2 1 2 2 3 5 5 2 4 1 1 3 2 2 3 3 3 2 4 3 6 5 3 4 4 12 8 11 12 9 15 15 10 6 7 5 7 7 8 6 5 6 4 4 3
1 1 3 2 4 5 2 1 2 3 4 5 3 3 2 1 2 1 3 1 1 1 4 2 2 2 1 1 2 4 2 2 2 2 1 2 3 4 2 2 2 2 1 3 1 0 3 4 6 5 5 3 1 2 2 4 2 2 4 1 2 1 3 3 5 2 4 8 10 5 11 15 8 10 8 8 6 5 6 7 7 7 5 4 4 4 4 4
1 2 2 4 4 4 2 2 2 4 4 3 4 3 1 2 1 2 2 1 2 1 2 4 1 1 0 2 1 1 4 2 3 3 3 3 1 2 4 3 1 1 1 1 2 1 1 6 4 1 5 4 2 3 7 6 3 6 4 3 4 3 3 4 1 6 6 8 9 8 13 13 13 15 12 10 7 6 6 6 6 8 5 4 4 5 5 5
0 3 1 3 4 3 2 2 4 4 4 2 2 2 3 2 2 2 1 3 2 1 3 1 1 1 2 2 1 1 1 2 2 3 3 3 3 4 3 0 3 2 1 1 3 2 2 3 0 0 1 3 4 4 5 5 5 1 3 5 1 3 6 6 3 3 3 11 8 9 5 11 10 8 10 8 6 4 5 4 5 5 5 5 4 6 6 5
2 2 2 3 5 4 2 3 3 3 3 3 1 0 2 1 3 3 2 2 2 2 2 1 1 1 3 2 2 1 2 4 4 1 2 1 3 3 3 0 3 5 2 1 2 2 2 4 6 4 1 2 4 8 6 6 6 5 6 6 4 3 3 2 3 4 5 7 9 12 13 12 9 3 5 8 6 5 5 5 5 4 4 5 7 6 6 6
1 2 2 3 6 4 4 2 2 3 2 2 1 1 0 0 4 2 2 2 2 1 2 3 1 3 1 1 3 4 3 3 3 2 3 2 5 1 4 4 6 7 4 1 2 4 2 5 5 3 4 7 6 3 2 3 1 7 8 7 8 7 4 4 8 4 3 4 7 6 16 15 10 1 8 9 8 5 5 5 5 5 8 7 6 6 7 7
2 2 2 5 5 3 3 3 1 1 2 2 0 1 1 1 3 3 2 1 3 1 2 2 2 3 2 3 2 2 3 3 5 3 5 5 3 3 2 1 6 10 6 1 1 3 2 3 6 9 9 8 2 5 4 4 2 3 3 7 7 7 5 5 8 3 1 6 4 6 8 23 2 8 6 9 7 4 4 4 4 6 8 7 7 8 9 10
2 2 1 4 4 3 3 0 1 1 1 3 0 1 1 2 0 2 4 3 3 2 1 3 2 2 4 2 1 3 4 3 5 5 2 4 5 2 2 5 6 8 3 0 1 3 1 3 4 12 12 4 6 5 4 2 3 4 9 9 6 9 9 8 5 2 4 3 4 6 8 17 7 4 6 6 5 1 1 3 7 8 8 8 10 10 11 11
1 1 2 2 0 3 3 4 2 3 1 2 1 1 0 1 3 3 4 5 5 4 3 2 1 4 1 1 3 3 5 2 3 6 5 2 2 4 2 5 9 6 7 1 2 6 2 5 5 8 7 4 5 2 2 1 3 7 6 9 13 3 5 3 3 1 5 15 15 7 17 16 2 3 5 4 5 6 7 8 8 9 8 8 9 9 9 10
2 1 1 2 2 1 5 2 3 1 2 3 3 3 4 2 3 2 2 5 3 2 2 2 1 2 2 1 4 2 5 7 4 2 4 2 1 3 2 5 4 5 2 3 4 3 4 5 3 5 7 9 7 7 4 1 5 5 6 7 11 9 8 3 6 7 8 10 12 11 17 22 13 5 8 8 8 8 8 9 11 11 11 10 9 9 10 10
2 1 2 2 1 2 3 1 2 1 2 3 1 3 3 4 2 2 2 2 4 2 3 2 2 2 3 3 5 6 8 7 6 2 1 2 3 2 1 2 4 3 3 3 2 3 2 4 9 10 9 11 11 4 5 0 5 7 7 9 8 9 11 9 7 8 16 9 8 18 19 23 25 23 18 17 17 18 15 12 11 12 14 13 12 10 10 10
1 1 0 2 1 2 0 2 1 3 2 6 2 5 5 6 3 2 4 4 4 5 3 6 4 4 6 5 7 7 8 6 9 4 6 5 1 2 3 4 4 2 3 1 2 1 3 6 13 14 16 20 18 17 12 1 10 15 14 9 10 11 13 12 12 16 11 3 16 19 22 16 24 25 19 16 15 14 14 14 14 13 14 14 13 12 12 12
2 1 1 3 1 0 2 3 4 4 2 3 1 2 4 6 5 3 2 3 3 4 4 4 7 12 8 8 4 3 4 6 6 5 1 4 5 4 3 6 6 8 7 5 3 4 4 6 2 8 19 17 18 19 17 16 17 18 18 17 11 12 14 15 22 26 16 12 19 24 14 13 21 21 19 18 18 17 16 15 14 14 14 13 12 13 12 12
2 2 1 1 2 2 2 3 1 3 4 3 1 4 4 8 7 7 2 4 4 5 11 5 8 14 14 10 7 5 5 1 6 6 4 3 6 2 3 3 7 8 9 6 7 2 1 12 4 2 11 17 17 15 15 16 16 16 19 20 18 17 18 19 22 23 20 20 26 25 27 27 25 24 22 20 17 16 15 13 13 13 13 13 14 14 13 12
2 3 0 1 2 2 1 2 3 3 4 3 2 6 5 6 7 4 1 6 3 5 8 10 11 6 11 12 11 9 10 12 5 3 6 5 2 5 3 5 4 6 9 8 7 4 5 5 7 1 3 13 15 8 9 12 12 17 20 19 20 19 20 21 19 22 20 24 27 30 29 25 23 19 18 17 14 13 13 13 13 13 13 13 14 14 13 12
2 2 1 3 2 2 2 2 3 4 3 4 4 3 2 6 9 8 5 8 9 6 10 12 9 6 6 10 14 18 15 11 10 9 6 8 6 5 5 1 10 7 10 7 5 5 7 5 3 0 6 14 7 4 3 7 10 14 21 23 20 19 16 18 14 19 14 18 18 15 13 15 18 12 10 10 10 10 12 12 13 11 12 13 15 14 12 13
0 2 1 2 3 3 2 2 1 1 4 4 5 4 4 4 3 4 5 8 12 6 9 10 6 5 7 9 17 19 10 7 7 2 1 4 4 2 6 2 8 9 9 9 6 7 8 4 4 3 8 14 8 2 4 8 11 12 17 19 18 15 19 15 16 13 16 16 7 9 14 14 12 9 13 14 15 16 15 13 13 14 15 15 15 14 13 13
Wind_Direction
332 286 255 239 233 227 230 243 259 267 265 259 259 257 259 262 258 257 255 258 260 263 265 260 250 301 312 288 162 212 238 249 130 54 56 65 20 311 295 301 294 295 282 264 245 229 209 203 204 183 209 196 191 227 151 204 274 227 229 243 250 253 244 26 11 27 62 168 145 170 179 169 156 165 142 151 144 132 146 149 127 102 82 89 90 112 122 130
336 322 295 273 249 226 216 218 231 247 253 253 254 255 249 248 254 243 236 243 261 267 261 251 255 266 320 308 31 269 252 301 134 67 57 40 332 311 309 305 300 290 250 242 234 223 222 196 201 189 207 212 137 203 158 157 220 230 240 244 265 15 54 356 16 12 349 110 150 161 180 192 173 160 162 185 168 160 169 178 172 157 133 110 119 126 131 144
333 325 321 302 281 262 233 215 219 231 247 257 255 249 242 240 250 248 221 216 233 243 258 250 264 319 281 293 240 302 294 263 243 15 61 358 332 326 326 321 308 214 222 280 292 269 253 258 193 200 210 223 178 194 210 125 246 226 275 249 50 38 79 39 5 19 2 81 148 157 171 204 134 168 155 218 174 181 191 177 184 189 171 162 146 149 144 156
341 347 337 319 307 293 272 245 228 227 235 241 255 255 242 239 238 251 233 212 223 226 222 235 196 193 261 242 205 239 260 273 224 349 29 350 341 339 334 327 318 222 245 254 280 271 267 286 217 211 207 244 170 224 204 139 236 102 230 272 32 3 301 44 11 10 350 270 160 161 139 149 159 150 175 189 169 202 213 191 192 196 173 161 158 157 154 166
345 346 338 326 320 311 304 310 305 279 246 250 245 245 253 240 235 231 225 220 213 217 195 203 213 190 238 239 215 234 300 269 71 334 7 348 339 337 330 332 311 269 255 288 257 241 238 227 211 222 239 226 193 207 220 116 346 347 11 41 343 350 295 48 36 11 353 328 161 150 170 173 129 167 206 210 201 191 206 148 102 203 167 162 162 162 163 172
338 338 335 325 308 299 310 318 310 299 286 263 247 244 236 242 235 226 229 239 238 225 223 209 228 214 204 189 184 229 296 287 4 9 346 343 334 330 323 307 293 286 257 228 248 221 220 211 209 214 223 240 192 224 108 137 137 242 125 59 33 18 13 38 45 34 306 166 166 180 145 109 173 182 205 233 246 73 39 54 86 132 151 159 157 159 170 178
332 333 328 319 308 318 326 323 313 295 280 272 264 249 229 220 227 225 211 225 233 225 207 200 210 228 204 193 196 234 260 93 359 353 1 331 318 309 310 282 239 234 224 229 219 206 209 206 208 213 228 237 241 222 98 168 207 275 79 99 55 39 63 53 70 56 1 199 152 57 103 194 176 210 174 229 109 98 56 59 108 95 137 158 163 172 178 184
329 326 321 312 319 330 329 319 310 295 272 263 256 246 238 213 198 201 209 218 226 214 208 204 208 215 177 191 189 212 85 8 350 344 343 328 309 344 255 274 230 237 234 258 242 226 209 221 208 225 239 248 160 213 62 220 181 242 144 105 89 71 78 80 90 93 81 69 87 159 185 167 214 310 95 227 152 145 158 149 157 155 156 169 174 176 182 186
323 319 312 311 327 335 331 324 313 297 274 238 227 228 221 205 194 192 201 219 228 224 225 224 217 214 229 274 232 259 69 346 345 339 346 339 342 306 275 272 150 251 257 240 259 276 235 220 236 217 264 209 131 137 18 279 193 45 83 107 108 93 99 100 104 93 101 100 132 179 194 147 248 315 261 220 154 155 155 172 171 173 178 181 182 183 187 192
323 325 321 324 348 347 328 315 318 301 274 203 193 194 188 182 179 184 202 211 210 228 226 224 218 187 215 224 238 253 61 310 348 350 350 345 350 340 15 359 324 274 255 265 260 247 233 329 269 144 83 72 75 52 322 297 35 103 109 101 105 108 110 117 114 115 99 111 134 266 220 196 162 224 235 148 158 150 162 177 180 185 189 187 185 191 196 200
332 335 334 341 349 342 328 332 351 13 177 156 160 161 164 161 169 175 191 206 215 230 234 225 194 221 211 236 263 26 2 340 356 352 351 354 8 19 7 354 340 292 256 91 8 337 341 292 251 121 248 138 107 57 51 76 121 111 113 107 106 118 107 129 132 133 178 141 229 292 250 205 182 194 245 155 159 168 172 179 185 195 195 191 193 198 202 208
340 341 341 340 349 342 338 350 8 60 103 135 146 152 149 152 158 168 187 196 220 226 233 229 177 241 266 61 45 46 8 17 351 358 353 6 24 5 357 4 3 336 308 312 69 31 343 360 256 219 217 147 117 129 91 142 136 142 155 127 126 151 161 180 171 146 234 121 191 324 273 232 196 226 216 142 151 172 179 184 190 197 199 198 200 204 207 210
345 342 342 344 353 350 350 358 20 75 105 127 131 135 138 145 152 164 166 184 203 195 215 239 261 254 278 136 50 60 350 11 6 3 8 351 319 8 11 21 28 30 8 66 63 37 357 326 240 93 57 168 101 325 115 179 134 170 233 170 169 192 224 172 146 160 220 111 184 257 266 243 211 201 128 143 155 167 181 194 194 198 202 203 204 208 210 209
345 340 342 349 358 349 356 7 35 74 110 127 127 128 137 138 141 146 195 95 155 213 212 308 263 252 103 70 110 51 327 260 343 19 7 340 319 57 49 37 41 47 57 77 73 61 88 68 83 89 64 89 128 143 128 144 187 229 111 251 251 218 209 152 181 153 218 125 188 246 263 283 81 143 140 149 169 173 191 197 198 200 202 207 210 211 213 213
340 338 342 353 359 357 359 11 57 70 110 121 124 122 124 125 120 129 132 136 69 292 294 294 256 271 118 94 130 118 224 244 7 12 7 349 348 215 44 46 54 54 62 73 87 67 82 122 124 107 78 80 124 169 139 166 196 178 188 220 217 250 114 152 159 180 228 148 204 206 266 264 238 146 156 163 176 191 204 202 202 202 205 207 209 214 217 220
337 336 345 354 357 4 9 44 81 92 106 112 113 118 115 128 136 135 181 18 235 288 262 230 241 297 142 123 81 165 333 17 3 352 10 344 349 12 360 3 20 95 99 83 85 94 81 64 54 105 111 149 170 192 177 186 188 208 230 291 256 236 172 173 176 183 267 139 179 224 268 316 124 146 161 175 184 196 213 213 208 208 209 210 212 213 216 217
334 332 346 347 357 4 24 75 108 118 118 115 117 127 135 138 153 158 144 178 185 228 257 54 306 272 330 79 214 161 9 11 344 358 354 14 333 345 294 249 123 96 129 142 140 136 87 92 157 170 215 206 219 231 237 237 228 198 205 259 293 265 273 273 118 197 178 220 234 214 246 249 276 154 179 180 192 198 217 220 216 214 213 212 214 215 215 217
332 333 342 345 349 2 29 130 141 143 145 166 150 165 151 181 182 183 187 118 344 317 30 79 357 315 117 44 348 1 331 347 355 320 326 4 288 327 339 287 197 237 236 203 124 254 173 148 214 255 173 195 211 216 237 290 359 348 211 246 249 221 245 269 263 122 226 193 252 253 235 259 265 249 178 190 191 201 217 218 218 218 215 214 215 217 219 219
332 333 334 337 344 360 77 143 148 150 134 99 84 23 228 261 183 62 36 351 224 210 210 20 351 300 14 2 339 320 330 331 296 298 12 5 316 286 284 251 245 226 233 259 84 280 163 167 224 202 214 186 213 348 338 9 334 339 341 319 313 303 295 278 86 130 220 233 238 239 251 259 263 265 221 188 190 204 219 222 223 221 221 219 218 220 220 220
335 325 326 326 337 73 188 145 145 141 80 217 211 218 198 174 176 104 32 44 54 35 32 5 343 171 174 18 351 330 274 287 298 36 10 3 314 293 251 275 239 222 276 277 74 69 334 244 220 347 27 22 16 8 352 344 327 308 295 279 280 286 277 107 114 92 146 279 257 254 254 260 263 263 266 194 192 208 222 221 219 220 220 220 221 222 222 222
322 324 313 317 299 238 183 181 217 299 253 277 274 250 278 131 254 103 61 66 58 27 37 46 24 30 36 328 353 351 351 190 237 28 19 325 251 298 202 254 216 218 56 15 327 61 263 250 60 26 12 12 358 337 330 297 314 303 290 278 279 245 280 73 68 138 154 270 283 285 273 264 266 269 262 246 186 216 213 218 222 221 220 222 223 223 222 224
316 312 316 301 309 219 180 184 230 235 248 271 276 267 308 10 354 19 181 104 58 13 50 56 253 70 146 318 14 341 245 272 159 18 10 351 55 285 40 286 312 324 88 126 207 209 225 23 58 43 31 26 13 25 293 303 290 246 271 300 283 306 351 117 83 142 154 244 268 281 278 275 274 266 261 249 223 222 215 214 219 218 222 223 224 225 224 221
316 304 308 310 260 175 164 181 210 218 249 256 269 234 30 13 324 297 274 115 97 345 21 27 48 22 38 115 29 312 299 33 336 17 3 338 4 43 330 300 51 111 171 254 283 266 233 107 60 47 49 260 120 167 291 254 241 265 269 256 289 30 334 288 129 256 221 224 294 311 296 282 270 264 260 250 243 229 226 224 226 222 225 223 221 218 219 220
315 304 298 283 190 159 149 182 226 239 275 333 27 31 35 330 319 310 239 33 117 143 53 46 348 18 41 3 358 339 48 37 339 350 359 350 13 319 312 20 77 53 48 2 354 4 46 60 45 5 215 303 312 156 284 272 257 167 278 294 296 344 338 279 319 300 262 240 278 278 274 274 259 238 237 240 233 230 230 233 234 233 236 238 236 228 222 223
310 305 286 256 181 154 163 158 228 208 53 167 69 70 16 342 325 354 280 145 195 120 175 193 244 72 15 225 284 274 93 104 42 9 352 359 355 286 67 18 293 80 30 347 236 126 99 55 12 226 245 236 287 231 78 330 282 178 96 7 339 323 297 295 294 310 289 241 174 304 323 291 56 222 270 149 167 213 225 231 233 235 234 233 235 231 227 228
310 294 275 197 166 163 157 197 204 119 226 157 86 104 42 331 341 309 288 259 236 75 188 73 192 95 243 16 2 11 286 82 13 10 332 11 281 333 220 142 337 90 53 358 15 27 56 88 252 236 234 256 255 300 52 298 287 285 90 346 346 299 300 287 294 297 293 316 121 211 311 295 284 285 281 211 201 227 218 221 235 230 230 227 228 228 225 224
316 300 244 179 173 163 150 210 62 140 210 159 93 72 59 310 16 264 278 218 237 59 342 78 232 74 277 23 342 283 234 66 11 5 10 21 343 112 291 86 153 77 46 1 238 131 154 114 177 239 239 246 238 223 103 325 291 282 41 301 271 287 278 289 294 272 272 291 283 186 237 272 301 299 247 201 256 269 254 234 228 226 226 225 227 224 224 224
331 333 155 157 175 210 339 86 150 187 209 46 3 97 12 294 266 269 263 295 205 69 354 78 32 322 300 358 350 360 49 302 242 96 14 343 256 205 252 53 8 102 138 235 303 70 304 160 184 199 231 247 268 53 64 16 275 13 303 295 277 274 285 281 261 272 291 322 300 190 204 261 257 299 136 184 238 263 258 254 242 225 224 228 227 228 227 227
355 61 95 118 115 182 297 199 232 187 54 24 345 281 206 342 255 285 288 271 79 314 133 140 18 187 14 229 28 84 240 12 336 19 352 212 37 297 139 90 126 111 154 243 314 151 86 9 69 323 265 252 88 93 48 18 270 74 312 245 268 267 248 245 258 269 280 284 278 276 166 279 287 292 241 165 243 255 322 336 327 301 237 222 226 233 232 230
26 38 89 129 127 151 132 131 46 41 289 29 266 264 225 241 239 230 231 256 90 124 273 338 258 325 326 262 152 15 46 39 97 308 322 358 83 108 53 351 177 169 120 170 72 71 100 108 356 268 273 49 115 70 28 326 329 324 268 270 229 223 226 214 252 270 279 251 256 93 131 296 301 298 312 247 20 23 339 310 304 297 275 253 237 235 235 234
51 40 347 254 226 88 319 190 88 80 335 255 243 243 234 225 268 277 238 39 220 65 206 67 44 268 2 358 186 45 145 26 1 342 187 191 159 119 158 200 217 229 166 167 128 145 169 152 224 144 110 158 101 140 165 308 299 264 256 275 281 240 210 245 232 220 259 282 100 70 117 237 265 284 286 61 127 195 265 290 293 297 298 292 276 257 255 251
62 59 44 53 12 288 283 117 99 131 231 278 248 199 220 226 181 249 326 83 257 62 323 47 94 12 327 225 265 359 348 234 36 21 2 12 8 306 28 338 21 274 209 217 130 156 201 205 103 125 330 209 178 232 162 188 182 226 259 250 276 310 283 281 212 253 239 294 112 118 202 272 237 245 273 286 281 282 270 255 270 289 296 294 286 275 262 241
51 81 70 52 211 69 62 66 169 189 191 232 229 215 223 266 249 91 143 210 68 342 137 284 26 342 357 278 131 358 222 326 12 92 320 257 274 107 22 331 16 322 328 60 283 226 116 74 159 143 185 215 228 231 173 207 185 227 241 302 308 305 314 285 281 280 277 236 136 122 115 248 267 279 268 264 273 279 280 268 277 282 285 287 289 286 269 255
2 263 75 40 67 60 80 126 167 199 212 192 232 178 271 247 250 39 347 256 39 157 57 320 297 241 274 315 46 343 227 151 334 24 293 261 236 233 165 171 262 226 249 302 295 3 289 195 186 177 185 139 206 244 345 336 226 240 31 303 286 296 284 290 290 294 300 302 319 125 318 247 277 266 154 234 261 246 257 252 246 257 263 272 282 280 271 266
300 78 117 145 126 66 79 178 201 215 265 223 205 222 217 242 157 211 200 161 125 141 156 86 246 275 196 189 123 86 347 319 122 321 232 272 229 291 344 135 165 267 308 279 88 272 236 282 84 27 68 163 192 69 5 314 262 159 328 313 252 252 261 260 334 308 312 311 303 200 220 248 258 287 288 263 246 249 237 242 234 254 253 248 262 262 259 253
265 98 194 54 34 29 17 48 228 221 249 214 211 212 244 347 337 282 62 25 105 194 141 195 258 254 260 183 129 223 124 291 75 289 210 238 4 260 66 82 141 91 306 305 48 275 253 248 115 125 242 182 51 85 180 291 276 104 198 229 38 22 300 289 264 210 298 239 252 241 265 264 270 275 260 245 249 252 242 245 238 242 248 229 246 254 255 254
65 222 83 37 47 352 326 223 232 233 237 235 224 242 22 72 16 3 37 330 78 1 171 264 152 270 237 223 187 154 137 203 244 267 219 157 217 187 171 141 30 148 43 330 204 138 297 322 159 176 199 121 360 337 286 273 305 342 239 42 146 23 344 266 281 261 248 266 274 274 272 287 301 296 91 130 179 202 207 213 226 242 220 224 240 244 246 250
70 68 118 58 342 325 297 241 248 228 233 219 235 322 149 237 113 39 86 154 168 261 250 249 96 282 235 278 162 139 124 277 122 198 291 187 324 93 164 154 102 17 39 36 287 52 331 287 156 301 76 109 185 217 239 197 230 251 317 10 276 237 224 165 277 281 286 267 287 265 272 269 261 264 265 263 245 237 242 246 262 273 258 232 236 247 258 261
189 231 127 32 344 315 291 238 252 200 216 235 239 261 151 33 59 75 104 341 327 252 237 168 333 158 332 257 32 163 125 265 44 278 285 141 259 175 181 238 148 154 207 247 248 88 216 279 101 9 227 131 188 205 261 162 180 215 317 249 93 319 264 254 233 299 299 280 297 276 244 272 250 235 270 274 242 246 278 270 268 264 262 265 269 272 269 271
288 241 94 27 341 320 311 274 200 207 222 246 273 260 47 148 108 98 66 349 149 242 236 4 204 288 201 268 353 320 134 260 271 295 268 96 270 145 202 258 144 150 120 310 322 335 236 161 290 115 264 169 233 190 232 189 168 168 199 225 162 208 27 296 297 228 253 281 279 290 289 259 265 274 262 260 255 274 281 271 265 260 259 259 261 265 266 266
211 280 88 6 353 314 281 210 177 201 237 72 35 37 240 326 158 123 75 352 336 57 333 327 298 228 15 250 231 199 258 225 216 243 229 220 220 247 166 167 154 145 144 127 274 224 225 211 256 252 218 209 241 62 321 9 244 196 190 206 195 176 191 202 255 117 245 225 254 266 268 273 268 135 249 266 264 274 253 252 253 251 258 257 257 259 262 265
271 245 90 0 353 323 256 179 52 7 298 258 355 40 144 65 169 123 147 165 306 335 136 273 276 286 257 250 15 175 259 269 224 252 225 245 124 282 96 187 164 153 168 191 223 113 313 311 269 263 249 275 109 94 44 17 348 333 279 237 211 208 212 232 262 225 157 243 346 279 315 274 234 227 242 238 243 233 252 251 247 250 253 253 250 256 260 264
271 360 95 320 340 327 244 159 63 252 241 38 324 130 124 217 164 139 185 167 207 216 222 228 229 207 239 271 205 255 209 264 204 216 263 244 264 48 103 170 144 170 236 182 138 196 133 241 250 259 263 194 119 116 117 78 350 282 238 235 234 217 206 228 261 9 255 235 247 238 230 268 268 144 186 179 220 237 233 222 245 253 252 251 257 261 270 280
50 49 127 99 269 299 237 223 220 193 130 132 287 72 281 295 190 154 224 184 212 169 242 227 204 251 321 27 227 241 153 257 205 239 249 183 237 78 156 180 176 181 203 168 239 149 216 209 222 293 301 241 184 178 197 79 203 232 237 211 211 195 63 61 62 231 272 244 240 258 270 272 318 170 127 177 157 212 228 234 226 254 264 272 276 276 278 281
122 116 14 69 19 255 234 344 313 134 183 181 181 213 188 215 239 291 237 201 196 251 235 214 1 113 189 108 239 262 241 253 299 180 1 241 247 123 109 196 197 237 179 45 13 114 235 254 225 261 281 294 290 288 294 168 201 210 231 211 196 168 151 148 241 216 233 254 206 230 250 257 253 162 165 185 207 228 243 273 292 292 300 303 302 288 283 283
214 273 120 148 56 105 69 227 340 147 139 169 229 221 185 205 140 204 227 244 199 207 272 27 176 220 213 179 233 227 228 207 211 283 225 244 209 153 137 217 201 231 77 56 349 268 255 275 246 238 242 252 261 314 105 352 287 244 232 183 187 193 188 201 245 254 238 241 221 226 229 265 280 276 274 282 290 292 295 297 301 305 307 308 304 294 285 286
343 276 133 202 114 236 265 118 166 196 224 179 230 142 200 214 117 159 199 238 178 203 221 224 193 174 207 196 242 255 229 212 224 295 233 229 253 118 128 202 210 208 127 141 228 232 258 262 233 232 246 250 260 274 286 350 276 274 274 243 182 185 181 193 205 234 226 282 261 250 243 256 265 274 280 282 285 292 296 301 304 304 307 307 300 291 284 282
255 52 63 25 309 134 210 205 186 195 33 237 243 128 207 192 192 207 122 255 57 228 231 194 209 226 207 192 199 240 176 223 192 229 237 225 249 200 187 171 206 167 168 187 180 213 241 256 264 198 247 255 263 269 277 278 269 272 271 264 239 190 181 193 221 234 237 240 252 266 268 265 272 277 283 286 290 296 300 299 298 299 296 292 289 287 285 287
354 64 50 10 256 31 5 25 207 190 169 226 217 190 219 205 224 204 167 147 204 209 206 252 221 211 220 221 218 245 199 240 238 207 192 189 205 162 220 151 207 159 191 185 185 212 229 254 237 175 276 277 268 261 260 257 263 264 260 259 254 235 205 204 229 234 229 237 250 263 272 271 271 277 281 283 292 295 293 292 289 285 285 290 290 288 283 282
186 213 133 204 68 81 88 145 167 174 208 194 252 207 210 212 221 152 228 181 206 215 183 234 251 214 205 213 217 228 221 217 262 261 194 153 215 205 247 235 127 183 196 201 181 207 203 263 97 207 279 274 279 253 245 243 254 264 268 261 252 241 238 226 228 246 244 253 256 257 263 270 270 269 277 286 287 278 276 274 274 281 289 293 295 293 288 286
20 354 6 165 212 112 144 171 174 220 233 166 227 213 197 217 233 205 214 205 219 182 181 214 232 213 208 218 222 237 239 242 252 277 181 174 249 178 189 269 131 156 187 191 199 177 187 258 96 161 287 279 283 186 214 237 253 261 272 271 250 232 233 233 226 231 215 232 243 254 265 260 266 276 271 270 268 270 275 285 294 297 300 300 297 300 295 291
342 112 231 287 275 143 213 105 291 227 245 202 206 190 205 226 178 146 257 205 218 235 200 206 217 213 227 209 230 233 255 264 288 8 157 266 289 273 244 252 184 163 175 196 167 182 191 229 239 224 254 257 258 140 283 306 291 274 253 246 249 225 215 222 223 222 215 221 244 236 240 245 269 297 297 295 300 301 302 303 307 305 301 293 291 291 288 286